Regional Weather Roundup
Issued by NWS

Home | Current Version | Previous Version | Graphics & Text | Print | Product List | Glossary On
Versions: 1 2 3 4 5 6 7 8 9 10 11 12 13 14 15 16 17 18 19 20 21 22 23 24 25 26 27 28 29 30 31 32 33 34 35 36 37 38 39 40 41 42 43 44 45 46 47 48 49 50
539
ASUS43 KBIS 251502
RWRND

NORTH DAKOTA REGIONAL WEATHER ROUNDUP
NATIONAL WEATHER SERVICE BISMARCK ND
1000 AM CDT TUE APR 25 2017

NOTE: "FAIR" INDICATES FEW OR NO CLOUDS BELOW 12,000 FEET WITH NO
SIGNIFICANT WEATHER AND/OR OBSTRUCTIONS TO VISIBILITY.


NDZ001>003-009>011-017-251600-
NORTHWEST NORTH DAKOTA

CITY           SKY/WX    TMP DP  RH WIND       PRES   REMARKS
WILLISTON      CLOUDY    32  22  66 NE13      29.93R
MINOT          CLOUDY    31  23  72 N20G28    29.88F WCI  19
MINOT AFB      CLOUDY    30  23  75 NE18G26   29.88F WCI  17
$$

NDZ018>021-031>035-040>046-251600-
SOUTHWEST NORTH DAKOTA

CITY           SKY/WX    TMP DP  RH WIND       PRES   REMARKS
BISMARCK       CLOUDY    31  26  82 NE15      29.84R
DICKINSON      CLOUDY    26  24  92 NE16      29.83R WCI  14
GARRISON         N/A     28  22  78 NE15G22   29.86R WCI  16
HETTINGER ARPT CLOUDY    26  25  96 NE16      29.83R WCI  14
$$

NDZ004>008-012>016-024-026-027-054-251600-
NORTHEAST NORTH DAKOTA

CITY           SKY/WX    TMP DP  RH WIND       PRES   REMARKS
GRAND FORKS    CLOUDY    33  28  81 N29       29.80S WCI  19
GRND FRKS AFB  CLOUDY    31  27  84 N25G31    29.80F WCI  17
DEVILS LAKE    CLOUDY    29  24  82 N26G32    29.84S WCI  14
$$

NDZ022-023-025-028>030-036>039-047>053-251600-
SOUTHEAST NORTH DAKOTA

CITY           SKY/WX    TMP DP  RH WIND       PRES   REMARKS
FARGO          CLOUDY    34  31  88 N29G36    29.72R
JAMESTOWN      CLOUDY    30  28  92 N25G31    29.76R WCI  16
$$





USA.gov is the U.S. government's official web portal to all federal, state and local government web resources and services.